Flag for Sweden Weather past 2 weeks in Borås, Sweden

Now
46 °F

Clear.


Feels Like: 42 °F
Forecast: 41 / 66 °F
Wind: 8 mph from East

Location: Gothenburg / Landvetter


UV Index: 3 (Moderate)

Visibility: 10 mi


Pressure: 30.18 "Hg

Humidity: 71%

Dew point: 37 °F

Location of BoråsLocation

Historic Weather in Borås

°F

Borås temperature yesterday

Maximum temperature yesterday: 61 °F (at 4:50 PM)
Minimum temperature yesterday: 36 °F (at 4:50 AM)
Average temperature yesterday: 49 °F

Past Weeks' High & Low Weather Summary

 TemperatureHumidityPressure
High61 °F (Apr 19, 4:50 PM)100% (Apr 5, 6:20 PM)30.39 "Hg (Apr 5, 6:20 PM)
Low28 °F (Apr 5, 3:50 AM)29% (Apr 15, 5:20 PM)29.42 "Hg (Apr 14, 5:50 AM)
Average43 °F82%29.89 "Hg
* Reported Apr 5 1:20 AM — Apr 20 1:50 AM, Borås, Weather by CustomWeather, © 2014

Note: Actual official high and low records may vary slightly from our data, if they occured in-between our weather recording intervals... More about our weather records

Advertising

Historic Weather Conditions — Data for Previous 24 hours

 ConditionsComfort  
Time TempWeatherWind HumidityBarometerVisibility
1:50 AM
Apr 20
46 °FClear.7 mph76%30.21 "Hg10 mi
1:20 AM41 °FClear.5 mph87%30.21 "Hg10 mi
12:50 AM43 °FClear.6 mph81%30.21 "Hg10 mi
12:20 AM45 °FClear.8 mph81%30.21 "Hg10 mi
11:50 PM
Apr 19
45 °FClear.7 mph81%30.21 "Hg10 mi
11:20 PM48 °FClear.7 mph71%30.21 "Hg10 mi
10:50 PM46 °FClear.8 mph76%30.21 "Hg10 mi
10:20 PM48 °FClear.6 mph71%30.21 "Hg10 mi
9:50 PM48 °FClear.7 mph71%30.21 "Hg10 mi
9:20 PM50 °FSunny.5 mph67%30.21 "Hg10 mi
8:50 PM52 °FSunny.5 mph62%30.21 "Hg10 mi
8:20 PM54 °FPassing clouds.6 mph58%30.21 "HgN/A
7:50 PM55 °FSunny.5 mph55%30.21 "Hg10 mi
7:20 PM57 °FSunny.6 mph51%30.21 "Hg10 mi
6:50 PM59 °FPassing clouds.6 mph48%30.21 "HgN/A
6:20 PM59 °FPassing clouds.5 mph48%30.21 "HgN/A
5:50 PM61 °FSunny.3 mph42%30.24 "Hg10 mi
5:20 PM61 °FPassing clouds.5 mph42%30.24 "HgN/A
4:50 PM61 °FPassing clouds.5 mph45%30.24 "HgN/A
4:20 PM59 °FPassing clouds.5 mph45%30.24 "HgN/A
3:50 PM59 °FSunny.3 mph48%30.24 "Hg10 mi
3:20 PM59 °FPassing clouds.5 mph48%30.27 "HgN/A
2:50 PM59 °FPassing clouds.7 mph48%30.27 "HgN/A
2:20 PM59 °FPassing clouds.7 mph48%30.27 "HgN/A
1:50 PM57 °FPassing clouds.3 mph51%30.27 "HgN/A
1:20 PM59 °FPassing clouds.3 mph48%30.27 "HgN/A
12:50 PM57 °FSunny.2 mph51%30.27 "Hg10 mi
12:20 PM57 °FSunny.2 mph55%30.27 "Hg10 mi
11:50 AM54 °FSunny.5 mph54%30.27 "Hg10 mi
11:20 AM54 °FSunny.2 mph54%30.27 "Hg10 mi
10:50 AM52 °FSunny.2 mph62%30.27 "Hg10 mi
10:20 AM50 °FSunny.2 mph67%30.27 "Hg10 mi
9:50 AM48 °FPassing clouds.5 mph71%30.27 "HgN/A
9:20 AM46 °FPassing clouds.3 mph76%30.27 "HgN/A
8:50 AM43 °FSunny.3 mph87%30.27 "Hg10 mi
8:20 AM41 °FSunny.5 mph87%30.27 "Hg10 mi
7:50 AM43 °FPassing clouds.3 mph81%30.24 "HgN/A
7:20 AM41 °FSunny.7 mph87%30.24 "Hg10 mi
6:50 AM39 °FClear.7 mph93%30.24 "Hg10 mi
6:20 AM37 °FClear.9 mph100%30.21 "Hg10 mi
5:50 AM37 °FClear.8 mph100%30.21 "Hg10 mi
5:20 AM36 °FClear.6 mph100%30.21 "Hg10 mi
4:50 AM36 °FClear.5 mph93%30.21 "Hg10 mi
4:20 AM37 °FClear.5 mph100%30.21 "Hg10 mi
3:50 AM39 °FClear.6 mph87%30.21 "Hg10 mi
3:20 AM39 °FPassing clouds.5 mph93%30.21 "HgN/A
Weather by CustomWeather, © 2014

See weather overview